Weather History for Minneapolis, MN

Change the Weather History Date:

Saturday, January 4, 2014

  Actual Average Record
Temperature  
Mean Temperature 17 °F 16 °F  
Max Temperature 35 °F 24 °F 41 °F (1898)
Min Temperature -2 °F 8 °F -32 °F (1884)
Degree Days  
Heating Degree Days 48 49  
Month to date heating degree days 239 196  
Since 1 July heating degree days 3362 3219  
Cooling Degree Days 0 0  
Month to date cooling degree days 0 0  
Year to date cooling degree days 0 0  
Moisture  
Dew Point 10 °F    
Average Humidity 75    
Maximum Humidity 89    
Minimum Humidity 61    
Precipitation  
Precipitation 0.02 in 0.03 in 0.57 in (1997)
Month to date precipitation 0.14 0.13  
Year to date precipitation 0.14 0.13  
Snow  
Snow T in 0.40 in 3.20 in (1910)
Month to date snowfall 0.3 1.5  
Since 1 July snowfall 17.3 23.3  
Snow Depth 6.00 in    
Sea Level Pressure  
Sea Level Pressure 29.87 in    
Wind  
Wind Speed 13 mph (WNW)    
Max Wind Speed 28 mph    
Max Gust Speed 35 mph    
Visibility 9 miles    
Events Snow    
T = Trace of Precipitation, MM = Missing Value Source: NWS Daily Summary

Daily Weather History Graph

Daily Weather History Graph

Search for Another Location

Airport:

Trip Planner

Search our weather history database for the weather conditions in past years. The results will help you decide how hot, cold, wet, or windy it might be!

Date:

Astronomy

Jan. 04, 2014 Rise Set
Actual Time 7:50 AM CST 4:45 PM CST
Civil Twilight 7:17 AM CST 5:18 PM CST
Nautical Twilight 6:40 AM CST 5:55 PM CST
Astronomical Twilight 6:04 AM CST 6:31 PM CST
Moon 9:46 AM CST (1/4) 9:17 PM CST (1/4)
Length of Visible Light 10h 01m
Length of Day
8h 54m
Waxing Crescent, 15% of the Moon is Illuminated
Jan 4
Waxing Crescent
Jan 7
First Quarter
Jan 15
Full
Jan 23
Last Quarter
Jan 30
New

Hourly Weather History & Observations

Time (CST) Temp. Windchill Dew Point Humidity Pressure Visibility Wind Dir Wind Speed Gust Speed Precip Events Conditions
12:53 AM 28.9 °F 19.2 °F 25.0 °F 85% 29.44 in 8.0 mi South 11.5 mph - 0.01 in   Overcast
1:53 AM 30.0 °F 22.4 °F 26.1 °F 85% 29.45 in 9.0 mi SSW 8.1 mph - N/A   Overcast
2:18 AM 30.2 °F 22.6 °F 26.6 °F 86% 29.45 in 9.0 mi SW 8.1 mph - N/A   Mostly Cloudy
2:53 AM 32.0 °F 24.2 °F 28.0 °F 85% 29.49 in 9.0 mi SSW 9.2 mph - N/A   Overcast
3:32 AM 32.0 °F 24.8 °F 28.4 °F 87% 29.45 in 9.0 mi WSW 8.1 mph - N/A   Overcast
3:53 AM 34.0 °F 26.0 °F 30.0 °F 85% 29.49 in 9.0 mi West 10.4 mph - N/A   Mostly Cloudy
4:04 AM 33.8 °F 27.0 °F 30.2 °F 87% 29.47 in 9.0 mi West 8.1 mph - N/A   Overcast
4:53 AM 30.9 °F 19.1 °F 27.0 °F 85% 29.55 in 7.0 mi West 18.4 mph - 0.01 in   Overcast
5:27 AM 28.4 °F 16.6 °F 24.8 °F 86% 29.57 in 5.0 mi WNW 16.1 mph 24.2 mph N/A   Overcast
5:53 AM 28.0 °F 16.1 °F 24.1 °F 85% 29.64 in 6.0 mi NW 16.1 mph 21.9 mph N/A   Overcast
6:19 AM 26.6 °F 13.4 °F 19.4 °F 74% 29.64 in 7.0 mi NNW 18.4 mph 26.5 mph N/A   Overcast
6:36 AM 26.6 °F 13.1 °F 19.4 °F 74% 29.68 in 6.0 mi NW 19.6 mph 28.8 mph N/A   Haze
6:53 AM 25.0 °F 13.1 °F 17.1 °F 72% 29.73 in 8.0 mi NNW 13.8 mph 26.5 mph N/A   Overcast
7:22 AM 24.8 °F 10.0 °F 15.8 °F 69% 29.73 in 8.0 mi NW 21.9 mph 27.6 mph N/A   Overcast
7:53 AM 21.0 °F 5.0 °F 12.0 °F 68% 29.81 in 9.0 mi NW 21.9 mph 31.1 mph N/A   Overcast
8:29 AM 17.6 °F 0.1 °F 10.4 °F 73% 29.79 in 8.0 mi NNW 23.0 mph 29.9 mph N/A   Mostly Cloudy
8:53 AM 18.0 °F 4.8 °F 9.0 °F 68% 29.89 in 8.0 mi NNW 12.7 mph 23.0 mph N/A   Mostly Cloudy
9:05 AM 17.6 °F 3.2 °F 10.4 °F 73% 29.86 in 7.0 mi NNW 15.0 mph 18.4 mph N/A   Mostly Cloudy
9:53 AM 16.0 °F 0.6 °F 8.1 °F 71% 29.93 in 4.0 mi WNW 16.1 mph 24.2 mph 0.00 in Snow Light Snow
10:39 AM 15.8 °F -1.1 °F 6.8 °F 68% 29.93 in 6.0 mi NW 19.6 mph - 0.00 in Snow Light Snow
10:53 AM 15.1 °F -1.1 °F 6.1 °F 68% 29.96 in 7.0 mi NW 17.3 mph - 0.00 in   Mostly Cloudy
11:02 AM 14.0 °F -2.0 °F 5.0 °F 67% 29.93 in 10.0 mi NNW 16.1 mph 23.0 mph N/A   Scattered Clouds
11:13 AM 15.8 °F 0.3 °F 5.0 °F 62% 29.94 in 10.0 mi NNW 16.1 mph 23.0 mph N/A   Scattered Clouds
11:53 AM 15.1 °F 0.5 °F 5.0 °F 64% 29.97 in 10.0 mi NNW 13.8 mph - N/A   Mostly Cloudy
12:53 PM 16.0 °F 2.3 °F 5.0 °F 62% 29.98 in 10.0 mi NW 12.7 mph - N/A   Scattered Clouds
1:53 PM 15.1 °F 0.5 °F 5.0 °F 64% 30.02 in 9.0 mi WNW 13.8 mph - N/A   Overcast
2:53 PM 12.9 °F -3.9 °F 1.0 °F 59% 30.06 in 10.0 mi NW 17.3 mph 23.0 mph N/A   Mostly Cloudy
3:53 PM 12.9 °F -0.2 °F 1.9 °F 62% 30.09 in 10.0 mi WNW 10.4 mph - N/A   Mostly Cloudy
4:53 PM 10.9 °F -4.1 °F 1.0 °F 64% 30.13 in 10.0 mi NW 12.7 mph 21.9 mph N/A   Mostly Cloudy
5:53 PM 10.0 °F -3.7 °F -0.9 °F 61% 30.16 in 10.0 mi WNW 10.4 mph - N/A   Mostly Cloudy
6:53 PM 7.0 °F -8.3 °F -4.0 °F 61% 30.20 in 10.0 mi NW 11.5 mph - N/A   Mostly Cloudy
7:53 PM 5.0 °F -12.3 °F -5.1 °F 63% 30.22 in 10.0 mi NW 13.8 mph - N/A   Mostly Cloudy
8:53 PM 3.0 °F -13.3 °F -6.0 °F 66% 30.25 in 10.0 mi NW 11.5 mph - N/A   Partly Cloudy
9:53 PM 1.0 °F -18.0 °F -8.0 °F 66% 30.27 in 10.0 mi NNW 15.0 mph - N/A   Partly Cloudy
10:53 PM -0.0 °F -15.3 °F -9.0 °F 66% 30.30 in 10.0 mi NW 9.2 mph - N/A   Scattered Clouds
11:53 PM -2.0 °F -15.4 °F -9.9 °F 69% 30.32 in 10.0 mi WNW 6.9 mph - N/A   Partly Cloudy